User: anonymous   Login
Location: Unspecified
(0.0000°N, 0.0000°E)
Time: 07:40:47
(UTC+00:00)
Language:

Tiros 1 - Orbit

View from above orbital plane
View from above orbital plane
View from above satellite
View from above satellite

Ground track
Ground track

The orbit data is extracted from the following two-line orbital elements,

1 00029U 60002B   14305.09922880  .00000547  00000-0  11466-3 0  3698
2 00029 048.3792 284.8531 0023950 082.7599 277.6034 14.73395163915428
Epoch (UTC): 01 November 2014 02:22:53
Eccentricity: 0.0023950
inclination: 48.3792°
perigee height: 633 km
apogee height: 667 km
right ascension of ascending node: 284.8531°
argument of perigee: 82.7599°
revolutions per day: 14.73395163
mean anomaly at epoch: 277.6034°
orbit number at epoch: 91542

The dashed part of the orbit path shows where the satellite is in the earth's shadow,  

DLR